Regional Weather Roundup
Issued by NWS

Home | Current Version | Previous Version | Text Only | Print | Product List | Glossary Off
Versions: 1 2 3 4 5 6 7 8 9 10 11 12 13 14 15 16 17 18 19 20 21 22 23 24 25 26 27 28 29 30 31 32 33 34 35 36 37 38 39 40 41 42 43 44 45 46 47 48 49 50

000
ASUS43 KDTX 040001
RWRMI
MICHIGAN HOURLY REGIONAL WEATHER ROUNDUP
NATIONAL WEATHER SERVICE DETROIT/PONTIAC MI
800 PM EDT THU SEP 03 2015

NOTE: "FAIR" INDICATES FEW OR NO CLOUDS BELOW 12,000 FEET WITH NO
SIGNIFICANT WEATHER AND/OR OBSTRUCTION TO VISIBILITY.

MIZ047>049-052>055-059>063-066>070-074>076-081>083-040100-
SOUTHEAST LOWER MICHIGAN

CITY           SKY/WX    TMP DP  RH WIND       PRES   REMARKS
ADRIAN         CLOUDY    74  68  81 E12       29.91S
6HR MIN TEMP:  74; 6HR MAX TEMP:  91; 6HR PCP:  0.02;

ALMA           CLOUDY    68  68  98 E3        29.90F
6HR MIN TEMP:  68; 6HR MAX TEMP:  77;

ANN ARBOR      LGT RAIN  68  66  93 NE3       29.92S
BAD AXE        LGT RAIN  68  66  94 E6        29.95R
6HR MIN TEMP:  67; 6HR MAX TEMP:  72;

CARO           RAIN      66  65  99 CALM      29.92S
DETROIT CITY   LGT RAIN  70  66  87 S5        29.93S
6HR MIN TEMP:  69; 6HR MAX TEMP:  88; 6HR PCP:  0.50;

DETROIT        TSTM      68  65  90 E7        29.92F
6HR MIN TEMP:  68; 6HR MAX TEMP:  89;

FLINT          CLOUDY    72  67  84 SE6       29.91F
6HR MIN TEMP:  71; 6HR MAX TEMP:  75; 6HR PCP:  0.12;

GROSSE ILE     RAIN      70  64  83 S6        29.91S
HILLSDALE      MOCLDY    83  67  60 CALM      29.91F
6HR MIN TEMP:  83; 6HR MAX TEMP:  88;

HOWELL         LGT RAIN  67  65  94 CALM      29.91S
6HR MIN TEMP:  67; 6HR MAX TEMP:  80;


CITY           SKY/WX    TMP DP  RH WIND       PRES   REMARKS
JACKSON        CLOUDY    72  70  93 SE3       29.91F
6HR MIN TEMP:  72; 6HR MAX TEMP:  86; 6HR PCP: TRACE;

LAMBERTVILLE   CLOUDY    78  69  73 NE14      29.91R
6HR MIN TEMP:  78; 6HR MAX TEMP:  91;

LANSING        CLOUDY    71  68  90 NE3       29.91R
6HR MIN TEMP:  71; 6HR MAX TEMP:  81; 6HR PCP:  0.08;

LAPEER         RAIN      67  66  97 N7        29.95R
6HR MIN TEMP:  67; 6HR MAX TEMP:  69; 6HR PCP:  0.20;

MASON          CLOUDY    70  67  89 CALM      29.91S FOG
6HR MIN TEMP:  69; 6HR MAX TEMP:  82;

MONROE         RAIN      70  67  88 NE9G18    29.91R
MT. CLEMENS    CLOUDY    70  67  91 N2        29.93R THUNDER
6HR MIN TEMP:  66; 6HR MAX TEMP:  80; 6HR PCP:  2.05;

PONTIAC        LGT RAIN  69  67  93 E5        29.90F
6HR MIN TEMP:  69; 6HR MAX TEMP:  76; 6HR PCP:  0.16;

PORT HOPE        N/A     70  68  93 E13       29.93S
6HR MIN TEMP:  68; 6HR MAX TEMP:  74; 6HR PCP:  0.29;

PORT HURON     LGT RAIN  68  68 100 E7        29.94S
TRI CITIES     CLOUDY    69  65  86 SE6       29.91S
6HR MIN TEMP:  68; 6HR MAX TEMP:  69;

MIDLAND        DRIZZLE   68  67  95 E5        29.90S
TROY           LGT RAIN  71  70  95 E6        29.93F
SAGINAW HB     CLOUDY    68  64  88 E9        29.90F
$$
MIZ043>046-050>051-056>058-064>065-071>073-077>080-040100-
SOUTHWEST LOWER MICHIGAN

CITY           SKY/WX    TMP DP  RH WIND       PRES   REMARKS
BATTLE CREEK   MOCLDY    83  70  64 W8        29.90S
6HR MIN TEMP:  83; 6HR MAX TEMP:  89;

BENTON HARBOR  PTCLDY    73  70  90 VRB6      29.90R FOG
6HR MIN TEMP:  73; 6HR MAX TEMP:  87;

BIG RAPIDS     CLOUDY    71  67  87 W5        29.90R
6HR MIN TEMP:  71; 6HR MAX TEMP:  81;

COLDWATER      MOCLDY    82  69  64 SW5       29.89F
6HR MIN TEMP:  82; 6HR MAX TEMP:  89;

FREMONT        CLOUDY    71  68  90 NW6       29.89S
HOLLAND        PTCLDY    74  66  76 NW6       29.91S
6HR MIN TEMP:  74; 6HR MAX TEMP:  83; 6HR PCP:  0.03;

GRAND RAPIDS   MOCLDY    77  70  79 W12       29.89F
6HR MIN TEMP:  74; 6HR MAX TEMP:  83; 6HR PCP:  0.30;

IONIA          CLOUDY    74  72  93 CALM      29.89S
KALAMAZOO      PTCLDY    82  69  64 NW7       29.90S
6HR MIN TEMP:  82; 6HR MAX TEMP:  89; 6HR PCP: TRACE;

LUDINGTON      CLOUDY    71  68  91 N5        29.90S FOG
6HR MIN TEMP:  68; 6HR MAX TEMP:  71;

MARSHALL       CLOUDY    76  71  83 CALM      29.90S
6HR MIN TEMP:  76; 6HR MAX TEMP:  88;

MOUNT PLEASANT CLOUDY    70  67  92 SE5       29.89S
6HR MIN TEMP:  69; 6HR MAX TEMP:  72; 6HR PCP:  1.57;

MUSKEGON       MOCLDY    71  66  84 NW10      29.90S
6HR MIN TEMP:  71; 6HR MAX TEMP:  80;

SOUTH HAVEN    CLEAR     73  67  84 N5        29.90S
$$
MIZ016>042-040100-
NORTHERN LOWER MICHIGAN

CITY           SKY/WX    TMP DP  RH WIND       PRES   REMARKS
ALPENA         MOCLDY    68  66  93 E3        29.95S
6HR MIN TEMP:  67; 6HR MAX TEMP:  71; 6HR PCP:  0.12;

BEAVER ISLAND  PTCLDY    70  65  85 E8        29.95R
6HR MIN TEMP:  70; 6HR MAX TEMP:  76;

BELLAIRE       CLOUDY    70  65  82 NE5       29.92R
6HR MIN TEMP:  70; 6HR MAX TEMP:  73;

CADILLAC       DRIZZLE   69  67  96 N7        29.91S
CHARLEVOIX     CLOUDY    71  66  82 E9        29.95R
6HR MIN TEMP:  71; 6HR MAX TEMP:  74;

FRANKFORT      CLOUDY    70  67  90 NE3       29.90S
GAYLORD        CLOUDY    67  67 100 E5        29.94S FOG
6HR MIN TEMP:  66; 6HR MAX TEMP:  69; 6HR PCP:  0.02;

GRAYLING       DRIZZLE   66  65  97 E7        29.94S
6HR MIN TEMP:  65; 6HR MAX TEMP:  67;

HARBOR SPRINGS CLOUDY    69  66  90 NE8       29.93R
HOUGHTON LAKE  CLOUDY    67  66  97 SE7       29.92S FOG
6HR MIN TEMP:  67; 6HR MAX TEMP:  69;

MANISTEE       MOCLDY    68  64  88 W3        29.90S
OSCODA         CLOUDY    68  67  96 E3        29.93S
6HR MIN TEMP:  68; 6HR MAX TEMP:  71;

PELLSTON       CLOUDY    71  66  84 NE7       29.95R
6HR MIN TEMP:  70; 6HR MAX TEMP:  74;

ROGERS CITY    MOCLDY    69  65  89 CALM      29.96R
TRAVERSE CITY  CLOUDY    72  66  81 NE3       29.89S
6HR MIN TEMP:  70; 6HR MAX TEMP:  72; 6HR PCP:  0.30;

$$
MIZ007>008-015-040100-
EASTERN UPPER MICHIGAN

CITY           SKY/WX    TMP DP  RH WIND       PRES   REMARKS
KINROSS        PTCLDY    73  64  73 E6        29.98R
6HR MIN TEMP:  73; 6HR MAX TEMP:  79;

MACKINAC ISLAN CLOUDY    65  64  97 NE7       29.96R FOG
NEWBERRY       CLEAR     75  63  67 NE3       29.97R
6HR MIN TEMP:  75; 6HR MAX TEMP:  82;

S. S. MARIE    PTCLDY    74  62  66 CALM      29.97R
6HR MIN TEMP:  74; 6HR MAX TEMP:  80;

$$
MIZ004>006-011>014-085-040100-
CENTRAL UPPER MICHIGAN

CITY           SKY/WX    TMP DP  RH WIND       PRES   REMARKS
MANISTIQUE     CLEAR     73  63  70 N5        29.95S
6HR MIN TEMP:  73; 6HR MAX TEMP:  80;

ESCANABA       CLEAR     75  63  64 NE9       29.94R
6HR MIN TEMP:  75; 6HR MAX TEMP:  79;

MENOMINEE      CLEAR     72  63  73 E5        29.93S
6HR MIN TEMP:  72; 6HR MAX TEMP:  75; 6HR PCP:  0.01;

SAWYER-GWINN   CLEAR     68  57  68 NE8       30.00S
$$
MIZ001>003-009>011-084-040100-
WESTERN UPPER MICHIGAN

CITY           SKY/WX    TMP DP  RH WIND       PRES   REMARKS
IRON MOUNTAIN  MOCLDY    77  65  66 NE3       29.95S
6HR MIN TEMP:  74; 6HR MAX TEMP:  80;

HOUGHTON       CLEAR     68  56  65 E3        29.99S
6HR MIN TEMP:  68; 6HR MAX TEMP:  78;

COPPER HARBOR    N/A     67  61  81 CALM      29.98S
6HR MIN TEMP:  64; 6HR MAX TEMP:  72;

IRONWOOD       CLEAR     73  64  73 E7        29.93S
6HR MIN TEMP:  72; 6HR MAX TEMP:  81;

$$

ABBREVIATIONS USED IN REMARKS
   TC - TEMPERATURE IN CELSIUS
  WCI - WIND CHILL INDEX
   HX - HEAT INDEX
  VSB - VISIBILITY



USA.gov is the U.S. government's official web portal to all federal, state and local government web resources and services.